Regional Weather Roundup
Issued by NWS San Diego, CA

Home | Current Version | Previous Version | Text Only | Print | Product List | Glossary On
Versions: 1 2 3 4 5 6 7 8 9 10 11 12 13 14 15 16 17 18 19 20 21 22 23 24 25 26 27 28 29 30 31 32 33 34 35 36 37 38 39 40 41 42 43 44 45 46 47 48 49 50
000
ASUS46 KSGX 271511
RWRSGX

SAN DIEGO HOURLY WEATHER ROUNDUP
NATIONAL WEATHER SERVICE SAN DIEGO CA
800 AM PDT WED JUL 27 2016

NOTE: "FAIR" INDICATES FEW OR NO CLOUDS BELOW 12,000 FEET WITH NO
SIGNIFICANT WEATHER AND/OR OBSTRUCTIONS TO VISIBILITY.

CAZ042-043-060-061-PZZ750-775-271600-

GREATER SAN DIEGO AREA

CITY           SKY/WX    TMP DP  RH WIND       PRES   REMARKS
LINDBERGH FLD  PTSUNNY   70  67  90 CALM      29.93R
POINT LOMA       N/A     70  66  88 NW5         N/A
NATIONAL CITY    N/A     73  69  88 CALM      29.92R
CHULA VISTA      N/A     73  69  89 CALM      29.83R
IMPERIAL BEACH PTSUNNY   76  68  76 W6        29.92R
BROWN FIELD    MOSUNNY   73  67  81 CALM      29.92R
MIRAMAR MCAS   MOSUNNY   74  67  78 CALM      29.92R
MONTGOMERY FLD MOSUNNY   74  66  76 CALM      29.92R

$$

NORTH SAN DIEGO COUNTY

CITY           SKY/WX    TMP DP  RH WIND       PRES   REMARKS
CAMP PENDLETON MOSUNNY   74  66  76 CALM      29.90S
OCEANSIDE AP   MOSUNNY   74  64  71 CALM      29.90R
OCEANSIDE HBR    N/A     74  69  83 CALM      29.93R
VISTA            N/A     70  64  82 CALM      29.88S
CARLSBAD       SUNNY     73  68  84 CALM      29.91R
DEL MAR          N/A     71  70  97 CALM      29.93R
LA JOLLA SCRIP   N/A     71  70  96 W2        29.91R
FALLBROOK        N/A     73  71  93 CALM      29.89S
ESCONDIDO        N/A     74  68  80 CALM      29.91S
SAN MARCOS       N/A     71  63  75 CALM      29.93R
POWAY            N/A     77  65  65 CALM      29.91S

$$

EAST SAN DIEGO COUNTY

CITY           SKY/WX    TMP DP  RH WIND       PRES   REMARKS
RAMONA         SUNNY     77  54  44 CALM      29.95R
SANTEE LAKES     N/A     74  65  72 CALM      29.89R
LA MESA          N/A     72  66  82 CALM      29.83R
JAMUL            N/A     74  67  78 CALM      29.89S
DESCANSO N       N/A     82  54  38 CALM      29.75S
MT. LAGUNA OBS   N/A     79  47  32 CALM      29.81R
CAMPO            N/A     79  52  38 CALM      29.98S

$$

ORANGE COUNTY AND THE LOS ANGELES BASIN

CITY           SKY/WX    TMP DP  RH WIND       PRES   REMARKS
JOHN WAYNE AP  MOSUNNY   73  66  78 CALM      29.91R
LAKE FOREST FR   N/A     72  45  37 CALM      29.78R
HUNTINGTON BCH   N/A     72  69  89 CALM      29.93R
LOS ALAMITOS   SUNNY     75  65  72 VRB1      29.91R
FULLERTON      SUNNY     76  62  62 CALM      29.90R
LONG BEACH     SUNNY     74  65  73 N3        29.91R
L.A. AP        MOSUNNY   71  65  81 W7        29.91R
L.A. DOWNTOWN  SUNNY     74  64  71 CALM      29.90R

$$

THE INLAND EMPIRE

CITY           SKY/WX    TMP DP  RH WIND       PRES   REMARKS
CORONA         SUNNY     76  61  59 W5        29.92R
CHINO          SUNNY     78  53  41 CALM      29.93R
ONTARIO        MOSUNNY   79  50  36 CALM      29.93R
SAN BERNARDINO SUNNY     81  48  32 CALM      29.94R
RIVERSIDE AP   SUNNY     78  49  35 CALM      29.92S
MORENO VALLEY    N/A     82  51  33 CALM      28.06R
MARCH ARB      SUNNY     80  43  26 CALM      29.95R
HORSETHIEF CYN   N/A     80  44  27 CALM      29.90R
HEMET EAST       N/A     76  50  40 CALM      29.77R
FRENCH VALLEY  FAIR      77  54  44 CALM      29.95R
TEMECULA         N/A     72  58  60 CALM      29.90R

$$

SAN BERNARDINO AND RIVERSIDE COUNTY MOUNTAINS

CITY           SKY/WX    TMP DP  RH WIND       PRES   REMARKS
BIG BEAR AP    SUNNY     64  46  52 W3        30.33R
PINE COVE        N/A     74  50  42 NW1       29.83R

$$

SOUTHERN DESERT INCLUDING THE COACHELLA VALLEY

CITY           SKY/WX    TMP DP  RH WIND       PRES   REMARKS
PALM SPRINGS   SUNNY     93  54  26 SE6       29.84R
THOUSAND PALMS   N/A     96  53  23 NE3       29.78R
PALM DESERT      N/A     93  61  33 CALM      27.62S
THERMAL        SUNNY     91  66  43 SW3       29.77R
BLYTHE         SUNNY     94  61  33 S12       29.81R
IMPERIAL AP    SUNNY     91  74  57 E3        29.77R HX 100
EL CENTRO NAS  MOSUNNY   90  70  51 CALM      29.79R HX  95
YUMA AZ        MOSUNNY   94  60  32 VRB3      29.80
MEXICALI       MOSUNNY   90  68  48 S5        29.80R

$$

UPPER DESERT

CITY           SKY/WX    TMP DP  RH WIND       PRES   REMARKS
VICTORVILLE AP SUNNY     84  45  24 CALM      30.01R
HESPERIA         N/A     85  51  31 W2        29.92R
PALMDALE       SUNNY     89  43  20 S3        29.98S
LANCASTER      SUNNY     87  40  19 SW3       29.97R
EDWARDS AFB    MOSUNNY   84  40  21 SW9       29.94R
DAGGETT        SUNNY     89  42  19 W12       29.92R
29 PALMS N     SUNNY     90  45  21 N6        29.99R
NEEDLES        SUNNY    101  60  25 E3        29.83R HX 101

$$

REGIONAL REPORTS

CITY           SKY/WX    TMP DP  RH WIND       PRES   REMARKS
SANTA BARBARA  FOG       62  62 100 CALM      29.91R VSB 1
SANDBERG       SUNNY     85  39  19 NW7       30.15R
LAS VEGAS NV   MOSUNNY   96  42  15 CALM      29.88R
PHOENIX AZ     MOSUNNY   96  62  32 SE5       29.87R HX  97
TIJUANA        PTSUNNY   72  63  73 NW3       29.95R
ENSENADA NW      N/A     72  32  23 CALM      29.88R

$$

OFFSHORE ISLANDS

CITY           SKY/WX    TMP DP  RH WIND       PRES   REMARKS
CATALINA ARPT  SUNNY     82   2   4 W3        29.97R
SAN CLEMENTE I PTSUNNY   66  61  84 SW8       29.94R
SAN NICOLAS IS MOSUNNY   64  59  83 N5        29.93R HAZE

$$

MARINE AND OFFSHORE BUOY REPORTS

STATION/POSITION SKY/WX   TEMP    WIND        PRES    SWELL
                          AIR SEA DIR/SP/G            HT/PER/DIR
                          (F)     (DEG/KT/KT) (MB)    (FT/S/D)
TANNER BANKS               60 65  290/  8/ 10 1013.4R   5/310/10
S CLEMENTE BASIN           67 70  280/  8/  8 1012.7R   3/200/13
SAN NICOLAS IS.               63                N/A     3/220/11
SO. S. ROSA ISLA           60 66  300/  8/ 10 1013.1R   5/310/10
W. S. BARBARA CH           59 62  300/  8/ 10 1013.2R   5/300/10
M. S. BARBARA CH                  220/  2/  6 1013.0R
S. MONICA BASIN            69 71   CALM  /  2 1012.1R
S PEDRO CHANNEL               72                N/A     2/170/13
OCEANSIDE OFFSHR              76                N/A     2/200/13
LA JOLLA 1                 72 72   80/  1/  1 1012.4R
SAN DIEGO BAY                 78              1012.8R
POINT LOMA SOUTH              72                N/A     2/190/13

$$




USA.gov is the U.S. government's official web portal to all federal, state and local government web resources and services.